Location: Cajon Junction
(34.3117°N, 117.4748°W)
Time: 04:32:17
(UTC+00:00)

Cosmos 1869 Rocket - Pass Details

Date: 18 April 2024
Orbit: 601 x 630 km, 82.5° (Epoch: 28 May)

Event Time Altitude Azimuth Distance (km) Brightness Sun altitude
Rises 12:06:56 0° 358° (N) 2,871 7.3 -14.0°
Reaches altitude 10° 12:09:12 10° 3° (N) 1,959 6.5 -13.5°
Maximum altitude 12:13:28 56° 82° (E) 718 4.3 -12.7°
Drops below altitude 10° 12:17:40 10° 161° (SSE) 1,936 6.1 -11.9°
Sets 12:19:53 0° 165° (SSE) 2,833 6.9 -11.5°
